Sandspit, British Columbia

3:25 AM PST on December 07, 2016 (GMT -0800)
Sandspit

Weather History for CYZP - January, 2013

Change the Weather History Date:

Saturday, January 19, 2013

  Actual Average Record
Temperature  
Mean Temperature 41 °F -  
Max Temperature 45 °F 40 °F 48 °F (1998)
Min Temperature 37 °F 34 °F 17 °F (2012)
Degree Days  
Heating Degree Days 24    
Moisture  
Dew Point 40 °F    
Average Humidity 97    
Maximum Humidity 100    
Minimum Humidity 87    
Precipitation  
Precipitation 0.00 in - - ()
Sea Level Pressure  
Sea Level Pressure 30.23 in    
Wind  
Wind Speed 5 mph ()    
Max Wind Speed 20 mph    
Max Gust Speed 26 mph    
Visibility 5.2 miles    
Events Fog    
Averages and records for this station are not official NWS values.
T = Trace of Precipitation, MM = Missing Value Source: Averaged Metar Reports

Daily Weather History Graph

Daily Weather History Graph

Search for Another Location

Airport or City:

Trip Planner

Search our weather history database for the weather conditions in past years. The results will help you decide how hot, cold, wet, or windy it might be!

Date:

Astronomy

Jan. 19, 2013 Rise Set
Actual Time 8:49 AM PST 5:07 PM PST
Civil Twilight 8:09 AM PST 5:47 PM PST
Nautical Twilight 7:26 AM PST 6:30 PM PST
Astronomical Twilight 6:44 AM PST 7:11 PM PST
Moon 11:46 AM PST (1/19) 2:18 AM PST (1/19)
Length of Visible Light 9h 37m
Length of Day
8h 18m
First Quarter, 58% of the Moon is Illuminated
Jan 19
First Quarter
Jan 26
Full
Feb 3
Last Quarter
Feb 9
New
Feb 17
First Quarter

Hourly Weather History & Observations

Time (PST) Temp. Windchill Dew Point Humidity Pressure Visibility Wind Dir Wind Speed Gust Speed Precip Events Conditions
12:00 AM 39.2 °F 35.9 °F 39.2 °F 100% 30.24 in 1.8 mi West 4.6 mph - N/A   Overcast
12:35 AM 39.2 °F 37.0 °F 39.2 °F 100% 30.24 in 0.5 mi WSW 3.5 mph - N/A Fog Fog
2:00 AM 39.2 °F - 39.2 °F 100% 30.24 in 0.6 mi SW 2.3 mph - N/A   Mist
2:13 AM 39.2 °F 37.0 °F 39.2 °F 100% 30.24 in 0.8 mi SW 3.5 mph - N/A   Overcast
3:00 AM 39.2 °F 37.0 °F 39.2 °F 100% 30.25 in 1.0 mi SSW 3.5 mph - N/A   Overcast
3:01 AM 39.2 °F 37.0 °F 39.2 °F 100% 30.25 in 1.0 mi SSW 3.5 mph - N/A   Overcast
3:10 AM 39.2 °F 37.0 °F 39.2 °F 100% 30.25 in 0.6 mi SW 3.5 mph - N/A   Overcast
3:24 AM 39.2 °F 37.0 °F 39.2 °F 100% 30.25 in 0.8 mi SW 3.5 mph - N/A   Overcast
3:31 AM 39.2 °F 35.9 °F 39.2 °F 100% 30.25 in 2.2 mi West 4.6 mph - N/A   Overcast
3:32 AM 39.2 °F 35.9 °F 39.2 °F 100% 30.25 in 3.0 mi WSW 4.6 mph - N/A   Overcast
3:34 AM 39.2 °F 35.9 °F 39.2 °F 100% 30.25 in 7.0 mi WSW 4.6 mph - N/A   Overcast
3:47 AM 39.2 °F 37.0 °F 39.2 °F 100% 30.24 in 5.0 mi SW 3.5 mph - N/A   Overcast
3:50 AM 39.2 °F 37.0 °F 37.4 °F 93% 30.23 in 2.2 mi SSW 3.5 mph - N/A   Overcast
3:51 AM 39.2 °F 37.0 °F 37.4 °F 93% 30.23 in 1.8 mi SW 3.5 mph - N/A   Overcast
4:00 AM 38 °F - - % 30.22 in - Calm Calm - -  
4:09 AM 37.4 °F - 37.4 °F 100% 30.23 in 2.5 mi Calm Calm - N/A   Mostly Cloudy
4:10 AM 37.4 °F - 37.4 °F 100% 30.23 in 3.0 mi Calm Calm - N/A   Mostly Cloudy
4:14 AM 37.4 °F - 37.4 °F 100% 30.23 in 2.5 mi Calm Calm - N/A   Mostly Cloudy
4:16 AM 37.4 °F - 37.4 °F 100% 30.23 in 1.5 mi Variable 2.3 mph - N/A   Mostly Cloudy
4:27 AM 37.4 °F 34.9 °F 37.4 °F 100% 30.23 in 2.5 mi WSW 3.5 mph - N/A   Mostly Cloudy
4:28 AM 39.2 °F 37.0 °F 37.4 °F 93% 30.23 in 3.0 mi WSW 3.5 mph - N/A   Overcast
4:31 AM 39.2 °F 37.0 °F 37.4 °F 93% 30.23 in 6.0 mi WSW 3.5 mph - N/A   Overcast
4:32 AM 39.2 °F 37.0 °F 37.4 °F 93% 30.23 in 5.0 mi WSW 3.5 mph - N/A   Overcast
4:34 AM 37.4 °F 34.9 °F 37.4 °F 100% 30.23 in 2.5 mi West 3.5 mph - N/A   Overcast
4:35 AM 37.4 °F 34.9 °F 37.4 °F 100% 30.23 in 1.8 mi West 3.5 mph - N/A   Overcast
4:49 AM 39.2 °F 35.9 °F 37.4 °F 93% 30.24 in 2.2 mi West 4.6 mph - N/A   Overcast
4:50 AM 39.2 °F 35.9 °F 37.4 °F 93% 30.24 in 3.0 mi West 4.6 mph - N/A   Overcast
5:00 AM 39.2 °F 35.9 °F 39.2 °F 100% 30.24 in 3.0 mi West 4.6 mph - N/A   Overcast
5:05 AM 39.2 °F 35.9 °F 39.2 °F 100% 30.24 in 6.0 mi West 4.6 mph - N/A   Overcast
5:06 AM 39.2 °F 35.9 °F 39.2 °F 100% 30.24 in 8.0 mi West 4.6 mph - N/A   Overcast
5:08 AM 39.2 °F 35.0 °F 39.2 °F 100% 30.24 in 5.0 mi West 5.8 mph - N/A   Overcast
5:10 AM 39.2 °F 35.0 °F 39.2 °F 100% 30.24 in 2.5 mi West 5.8 mph - N/A   Overcast
5:12 AM 39.2 °F 35.9 °F 39.2 °F 100% 30.24 in 1.8 mi West 4.6 mph - N/A   Overcast
5:22 AM 39.2 °F 35.9 °F 39.2 °F 100% 30.24 in 2.2 mi WSW 4.6 mph - N/A   Overcast
5:23 AM 39.2 °F 35.9 °F 39.2 °F 100% 30.24 in 3.0 mi West 4.6 mph - N/A   Overcast
5:24 AM 39.2 °F 35.0 °F 39.2 °F 100% 30.24 in 4.0 mi West 5.8 mph - N/A   Overcast
5:25 AM 39.2 °F 35.0 °F 39.2 °F 100% 30.24 in 6.0 mi West 5.8 mph - N/A   Overcast
5:33 AM 39.2 °F 35.9 °F 39.2 °F 100% 30.24 in 7.0 mi West 4.6 mph - N/A   Overcast
5:37 AM 39.2 °F 37.0 °F 39.2 °F 100% 30.23 in 4.0 mi West 3.5 mph - N/A   Overcast
5:38 AM 39.2 °F - 39.2 °F 100% 30.23 in 3.0 mi West 2.3 mph - N/A   Overcast
5:39 AM 39.2 °F - 39.2 °F 100% 30.23 in 3.0 mi West 2.3 mph - N/A   Overcast
5:40 AM 39.2 °F - 39.2 °F 100% 30.23 in 2.2 mi WSW 2.3 mph - N/A   Overcast
5:41 AM 39.2 °F - 39.2 °F 100% 30.23 in 1.8 mi WSW 2.3 mph - N/A   Overcast
5:42 AM 39.2 °F - 39.2 °F 100% 30.23 in 1.5 mi WSW 2.3 mph - N/A   Overcast
5:59 AM 39.2 °F 37.0 °F 39.2 °F 100% 30.22 in 2.0 mi West 3.5 mph - N/A   Overcast
6:00 AM 39.2 °F 37.0 °F 39.2 °F 100% 30.22 in 2.5 mi West 3.5 mph - N/A   Overcast
6:01 AM 39.2 °F 37.0 °F 39.2 °F 100% 30.22 in 3.0 mi West 3.5 mph - N/A   Overcast
6:05 AM 39.2 °F - 39.2 °F 100% 30.22 in 6.0 mi West 2.3 mph - N/A   Overcast
6:18 AM 39.2 °F 37.0 °F 39.2 °F 100% 30.23 in 5.0 mi WSW 3.5 mph - N/A   Overcast
6:25 AM 39.2 °F 35.0 °F 39.2 °F 100% 30.23 in 6.0 mi West 5.8 mph - N/A   Overcast
6:32 AM 39.2 °F 37.0 °F 39.2 °F 100% 30.22 in 9.0 mi West 3.5 mph - N/A   Overcast
6:36 AM 39.2 °F 37.0 °F 39.2 °F 100% 30.22 in 9.0 mi West 3.5 mph - N/A   Overcast
6:37 AM 39.2 °F 37.0 °F 39.2 °F 100% 30.22 in 9.0 mi West 3.5 mph - N/A   Overcast
6:39 AM 39.2 °F - 39.2 °F 100% 30.23 in 9.0 mi West 2.3 mph - N/A   Overcast
6:45 AM 39.2 °F - 39.2 °F 100% 30.23 in 9.0 mi WNW 2.3 mph - N/A   Overcast
6:51 AM 39.2 °F 37.0 °F 39.2 °F 100% 30.23 in 9.0 mi WNW 3.5 mph - N/A   Overcast
7:00 AM 39.2 °F - 39.2 °F 100% 30.22 in 9.0 mi Calm Calm - N/A   Overcast
7:22 AM 39.2 °F 37.0 °F 39.2 °F 100% 30.22 in 7.0 mi SW 3.5 mph - N/A   Overcast
7:27 AM 39.2 °F - 39.2 °F 100% 30.21 in 5.0 mi Variable 2.3 mph - N/A   Overcast
7:33 AM 39.2 °F - 39.2 °F 100% 30.21 in 2.5 mi Calm Calm - N/A   Overcast
7:36 AM 39.2 °F - 39.2 °F 100% 30.21 in 1.8 mi Calm Calm - N/A   Overcast
8:00 AM 39.2 °F - 39.2 °F 100% 30.22 in 1.0 mi WSW 2.3 mph - N/A   Overcast
8:15 AM 39.2 °F 37.0 °F 39.2 °F 100% 30.23 in 2.0 mi SW 3.5 mph - N/A   Overcast
8:18 AM 39.2 °F 35.9 °F 39.2 °F 100% 30.23 in 3.0 mi WSW 4.6 mph - N/A   Overcast
8:22 AM 39.2 °F 35.0 °F 39.2 °F 100% 30.23 in 7.0 mi WSW 5.8 mph - N/A   Overcast
9:00 AM 39.2 °F - 39.2 °F 100% 30.22 in 9.0 mi Calm Calm - N/A   Overcast
9:17 AM 42.8 °F 39.3 °F 41.0 °F 93% 30.22 in 9.0 mi SE 5.8 mph - N/A   Overcast
9:18 AM 42.8 °F 38.6 °F 41.0 °F 93% 30.22 in 9.0 mi SE 6.9 mph - N/A   Overcast
9:36 AM 42.8 °F 38.0 °F 42.8 °F 100% 30.23 in 7.0 mi SSE 8.1 mph - N/A   Overcast
9:38 AM 42.8 °F 38.6 °F 42.8 °F 100% 30.23 in 7.0 mi SSE 6.9 mph - N/A   Overcast
10:00 AM 44 °F - - % 30.21 in - SE 15.0 mph - -  
10:00 AM 44.6 °F 37.2 °F 42.8 °F 93% 30.22 in 9.0 mi SE 17.3 mph - N/A   Overcast
10:08 AM 44.6 °F 38.1 °F 42.8 °F 93% 30.22 in 9.0 mi SE 13.8 mph 20.7 mph N/A   Overcast
10:12 AM 44.6 °F 37.4 °F 42.8 °F 93% 30.22 in 9.0 mi SE 16.1 mph - N/A   Overcast
11:00 AM 44.6 °F 37.2 °F 42.8 °F 93% 30.22 in 8.0 mi SE 17.3 mph - N/A   Overcast
11:07 AM 44.6 °F 36.6 °F 42.8 °F 93% 30.22 in 9.0 mi SE 19.6 mph - N/A   Overcast
11:17 AM 44.6 °F 36.6 °F 42.8 °F 93% 30.22 in 9.0 mi SE 19.6 mph - N/A   Mostly Cloudy
11:31 AM 44.6 °F 37.4 °F 42.8 °F 93% 30.23 in 9.0 mi SE 16.1 mph 23.0 mph N/A   Mostly Cloudy
11:39 AM 44.6 °F 36.9 °F 42.8 °F 93% 30.22 in 8.0 mi SE 18.4 mph - N/A   Mostly Cloudy
11:51 AM 44.6 °F 36.6 °F 42.8 °F 93% 30.23 in 7.0 mi SSE 19.6 mph 26.5 mph N/A   Overcast
12:00 PM 44.6 °F 37.4 °F 42.8 °F 93% 30.23 in 9.0 mi SSE 16.1 mph 21.9 mph N/A   Overcast
12:29 PM 44.6 °F 38.1 °F 42.8 °F 93% 30.23 in 9.0 mi SE 13.8 mph - N/A   Overcast
1:00 PM 44.6 °F 38.1 °F 42.8 °F 93% 30.22 in 9.0 mi SE 13.8 mph - N/A   Overcast
2:00 PM 44.6 °F 37.4 °F 42.8 °F 93% 30.22 in 9.0 mi SE 16.1 mph - N/A   Overcast
3:00 PM 44.6 °F 38.1 °F 42.8 °F 93% 30.21 in 9.0 mi SE 13.8 mph - N/A   Overcast
4:00 PM 45 °F - - % 30.22 in - SE 11.5 mph - -  
4:00 PM 44.6 °F 38.8 °F 41.0 °F 87% 30.22 in 9.0 mi SE 11.5 mph - N/A   Overcast
5:00 PM 44.6 °F 38.8 °F 41.0 °F 87% 30.22 in 9.0 mi SE 11.5 mph - N/A   Overcast
6:00 PM 44.6 °F 38.4 °F 41.0 °F 87% 30.21 in 9.0 mi SE 12.7 mph - N/A   Overcast
7:00 PM 44.6 °F 40.2 °F 41.0 °F 87% 30.23 in 9.0 mi SSE 8.1 mph - N/A   Overcast
8:00 PM 44.6 °F 38.8 °F 41.0 °F 87% 30.23 in 9.0 mi SSE 11.5 mph - N/A   Overcast
9:00 PM 44.6 °F 41.4 °F 41.0 °F 87% 30.24 in 9.0 mi SSE 5.8 mph - N/A   Overcast
10:00 PM 44 °F - - % 30.25 in - South 4.6 mph - -  
11:00 PM 42.8 °F 39.3 °F 41.0 °F 93% 30.23 in 9.0 mi SE 5.8 mph - N/A   Overcast